Vertical_Velocity
-2 -2 0 -1 -3 2 -4 -2 -1 -0 -2 -0 -3 -0 -1 -3 -4 1 -1 -2 -1 -2 -4 -4 -5 -4 3 0 -4 -0 7 6 4 -1 -4 6 5 -0 2 1 2 0 2 1 -0 0 0 -2 0
-1 -3 -2 -1 1 1 -7 1 -0 -0 -2 -1 -0 -0 -1 -0 -3 -2 -3 -4 -1 -4 -4 -8 0 -0 5 0 -1 2 3 -6 -3 2 -2 2 1 1 1 3 2 -0 -1 -1 -3 -2 -2 -0 2
-2 -3 -1 -1 -0 4 4 1 -1 1 -1 1 1 0 1 -3 -1 -4 -3 -1 -4 0 1 20 2 4 21 44 -3 5 -2 -2 -1 1 1 -0 -2 1 1 1 -9 -1 2 2 -3 -0 -0 1 -1
-3 -4 -3 0 -4 0 2 -1 -1 -0 -2 -0 -1 -1 -0 -4 -3 -3 -1 -2 -2 -2 -11 5 19 9 -10 87 18 -1 3 3 2 -3 1 1 -2 -1 1 5 1 4 4 -0 -1 -1 -1 -0 1
-2 -3 -2 -3 -3 3 1 -1 -1 -2 -1 -2 -2 0 -3 -1 -3 -3 -4 -4 -2 1 -0 -14 7 3 -8 7 -2 -8 1 -2 -1 1 1 -0 6 -0 0 -1 -4 0 0 -0 -1 -4 -2 -1 1
-2 -1 -1 -1 -6 4 -2 -0 -1 -1 -1 -1 -3 1 -2 -0 -3 -3 -3 -3 -2 -4 -7 4 6 0 4 3 8 4 1 -3 -3 -3 -1 -2 12 8 -3 -2 -2 -2 7 -2 -2 -3 1 -0 -1
2 -2 0 2 -2 2 0 -0 -1 0 -2 -1 -2 1 -1 -1 -2 -2 -3 -0 -2 -0 -9 -9 -3 -0 7 -1 39 25 2 2 -3 -3 7 2 10 2 -0 -1 -3 4 6 -5 4 1 -0 -1 -2
3 -2 -1 1 -1 -0 1 -1 -0 1 -0 -3 -2 -0 -2 0 -0 -2 -3 -0 -2 -1 -6 -11 -4 2 3 -0 1 1 1 1 1 2 -3 4 13 -0 0 -0 -1 3 3 -0 -2 4 -2 -1 -0
1 0 -0 -1 3 -0 1 -0 0 1 -0 -2 -1 0 -1 -1 0 -3 -3 -3 -3 1 -1 2 1 8 2 2 -3 1 2 3 9 6 14 -5 18 -1 -4 -1 1 2 -2 1 -1 1 0 -2 -1
-1 2 -1 -1 1 3 -1 -1 2 1 -0 -2 1 -1 -0 1 2 1 -2 -0 -1 -2 -4 -4 -0 6 6 -12 33 3 1 2 22 13 1 9 10 -2 -2 -1 -1 0 1 -1 3 -1 1 -1 0
3 5 -2 -3 -2 4 -0 -1 -1 2 -0 -1 -1 -1 -1 2 2 1 -2 1 -2 -4 -1 1 3 6 10 1 -1 9 17 7 2 14 8 8 6 8 -2 -1 -2 0 2 2 -0 -1 -1 -1 -0
4 0 -1 -4 -4 -0 1 1 2 0 -2 1 -1 -3 -2 -0 -1 -0 -4 3 -2 -4 -1 0 0 -2 -1 4 12 10 -3 2 -0 14 16 4 4 -1 9 -2 0 -0 -0 -1 1 -1 3 1 -1
5 -1 -1 -5 -3 -1 2 -1 1 0 -1 -1 0 -1 -1 0 -0 0 -5 -0 0 -2 -2 -3 -4 -2 2 9 5 2 0 1 10 12 6 5 2 -3 -2 7 -4 -1 -0 3 -0 0 1 0 1
5 3 -1 -2 -5 1 0 -2 -2 -3 0 -2 -1 2 -0 1 1 -1 -2 -6 4 0 0 4 -1 0 -2 7 3 5 4 11 7 6 5 0 3 6 -3 4 -2 1 -0 -1 1 0 -1 1 -1
2 3 -3 0 -4 1 0 -0 -1 -0 0 -1 -1 0 -1 0 2 1 -5 -2 -2 1 -2 -6 -1 18 -2 -0 -2 -1 -0 0 -2 5 4 2 -1 0 4 7 1 -0 -2 1 1 0 0 4 0
0 1 1 0 -3 0 4 -3 -1 -1 0 0 0 -0 -2 -1 1 1 1 -4 -4 -1 1 -1 -6 -0 -0 -3 21 -0 -1 1 2 3 -0 4 1 7 11 8 -1 1 4 0 -1 1 5 2 -1
1 6 7 -5 -2 -0 1 4 -1 -1 -3 -1 1 -2 -1 -1 -0 0 -1 -2 -1 -3 -3 2 0 -3 -1 -2 -1 -2 8 4 6 -1 1 0 -1 -4 -1 2 1 1 -0 1 -1 0 4 1 -2
8 2 0 -0 -10 -4 -1 5 2 -2 1 -3 -1 -1 -0 0 -1 0 -2 -3 -4 -3 -1 -2 -0 0 -2 -2 1 1 3 6 5 -1 -1 3 5 4 6 1 2 0 -0 -0 0 0 -1 0 -1
-3 -5 1 2 -3 -3 -2 -1 3 1 1 -2 -2 -0 -2 0 -0 0 1 0 -2 -3 -4 -0 -3 -2 -1 1 3 2 0 -1 -7 1 3 -3 -2 -0 4 3 1 1 2 1 -2 -0 -1 -1 -0
-2 -0 4 3 -3 -2 -5 0 1 2 -1 -0 -2 -0 -3 0 -1 -1 -1 -2 0 -3 -6 -6 -1 -1 -3 -0 1 2 -0 -2 -0 -3 -2 0 -1 -2 -1 0 1 1 -1 4 1 -0 0 1 -0
-1 1 6 4 -8 -4 -0 -0 -4 3 -2 -2 -1 -3 -1 -2 0 -1 -1 3 0 -1 -4 -4 -2 -1 0 -3 -3 -0 -1 -1 -3 0 2 1 2 -0 -1 -2 1 0 4 1 -0 -0 -2 -0 1
-8 2 -1 4 -0 -3 -0 -1 -3 7 1 -2 -0 -4 -2 -2 -1 -2 -2 -1 -1 -0 -4 -5 -2 -3 -2 -5 -8 -4 -2 -0 3 4 -2 2 -0 1 -1 7 2 -0 -3 1 4 -1 1 1 11
13 -10 9 1 -6 -5 4 -10 8 8 2 -3 -0 -2 -3 -1 -2 -0 -4 -0 -3 -1 -1 -4 -5 -3 -3 -2 -5 -7 -6 -3 0 -1 0 3 -3 1 1 6 1 1 4 4 5 0 -0 2 0
-7 -0 5 0 -5 -13 12 -3 14 4 2 -0 -2 -0 -3 -1 1 2 -1 -1 -2 -0 -0 -3 -1 -2 -1 -0 -4 -4 -2 -4 2 -3 -3 4 1 -7 2 3 2 -0 1 4 4 2 -0 -0 3
1 1 4 -3 -11 7 -3 1 16 6 1 3 -4 -0 -3 -0 -2 2 2 -1 -1 -3 0 -1 -4 -2 -4 -3 0 1 -0 -1 2 5 -3 1 0 -5 3 2 -0 2 4 -1 0 -1 -0 -1 -0
9 4 5 8 3 11 -10 -1 3 7 1 -0 -2 -2 -3 -0 -2 0 1 -2 -0 -3 -2 -1 -1 -2 -1 -1 -2 -1 -2 -2 -2 -2 1 4 2 5 3 3 -0 2 -2 -2 -2 -2 1 0 -0
7 -17 23 -3 -2 1 -1 2 1 6 4 -3 1 -1 -2 -1 -1 -1 1 3 0 1 -5 -4 -1 -1 -3 -1 -0 -5 -2 -2 -3 -2 -3 -4 -1 -5 -3 -0 3 2 1 -0 1 4 2 -0 2
-2 5 -5 -2 -2 -2 1 1 3 5 6 3 -0 4 -1 -2 -0 -2 -3 2 0 0 -1 -2 -2 -3 -5 -2 -2 -2 -3 -2 0 -1 -2 -1 -3 -4 -3 -1 -1 -1 -1 -1 -3 -3 0 2 1
-0 1 1 2 -2 0 5 6 -13 2 4 2 -2 1 1 -1 1 1 1 -2 -1 -2 -0 -1 0 -2 1 -4 -2 0 -1 -1 -2 1 1 -4 -3 -5 -1 -3 -1 -4 -4 -3 -1 -1 -2 -4 -3
-3 -2 -3 -5 4 2 -1 3 -4 0 3 3 2 -2 2 2 0 -2 -1 -0 1 -1 -0 2 -0 -2 -2 -2 -3 -2 -3 -1 2 -3 -1 -1 -0 -2 -3 -4 -2 -3 -3 -0 1 -2 -2 -3 -3
Height
5833 5831 5830 5828 5829 5824 5821 5818 5815 5811 5808 5805 5803 5801 5800 5798 5796 5796 5791 5789 5787 5786 5786 5786 5786 5788 5790 5793 5797 5800 5803 5805 5808 5813 5819 5821 5826 5828 5832 5835 5837 5838 5839 5841 5843 5844 5846 5847 5849
5829 5826 5825 5823 5824 5819 5815 5814 5811 5807 5803 5800 5799 5797 5795 5793 5790 5789 5786 5783 5782 5781 5781 5781 5781 5780 5782 5783 5790 5795 5797 5800 5803 5808 5813 5817 5820 5823 5829 5832 5833 5835 5837 5839 5840 5842 5843 5845 5847
5825 5822 5821 5819 5819 5816 5813 5810 5806 5802 5799 5797 5795 5793 5790 5789 5788 5785 5781 5778 5777 5776 5774 5775 5771 5771 5769 5772 5781 5789 5793 5797 5799 5801 5807 5812 5817 5819 5824 5828 5830 5832 5833 5835 5837 5838 5840 5842 5844
5820 5818 5817 5814 5812 5812 5809 5804 5800 5797 5795 5793 5791 5789 5787 5784 5784 5780 5776 5773 5771 5769 5770 5767 5768 5761 5763 5756 5769 5784 5789 5792 5795 5798 5800 5806 5811 5813 5818 5823 5826 5829 5829 5829 5834 5835 5838 5839 5840
5817 5814 5812 5810 5809 5807 5804 5801 5796 5793 5791 5789 5788 5784 5782 5781 5779 5776 5772 5767 5767 5765 5763 5766 5765 5765 5765 5766 5766 5780 5784 5787 5791 5792 5795 5801 5806 5809 5813 5817 5820 5824 5827 5827 5830 5832 5834 5835 5837
5812 5810 5809 5806 5804 5803 5800 5797 5792 5789 5787 5786 5783 5780 5778 5777 5775 5772 5768 5765 5763 5760 5759 5760 5762 5763 5764 5769 5771 5775 5779 5783 5786 5788 5792 5795 5799 5803 5806 5812 5815 5820 5823 5824 5826 5828 5830 5832 5834
5808 5806 5804 5803 5802 5799 5797 5793 5789 5787 5783 5781 5778 5777 5775 5774 5771 5768 5765 5762 5759 5758 5755 5754 5756 5760 5764 5767 5769 5770 5773 5779 5781 5783 5786 5788 5792 5796 5803 5807 5811 5816 5819 5822 5822 5824 5827 5830 5831
5803 5802 5800 5799 5796 5795 5793 5790 5786 5784 5781 5778 5774 5774 5773 5771 5768 5766 5762 5758 5754 5751 5749 5749 5752 5754 5757 5761 5764 5767 5771 5772 5776 5778 5782 5784 5789 5794 5799 5803 5808 5812 5816 5818 5820 5820 5823 5825 5825
5798 5798 5796 5795 5792 5791 5789 5787 5783 5779 5776 5774 5773 5771 5769 5768 5764 5761 5760 5755 5750 5747 5747 5746 5748 5749 5751 5753 5758 5760 5764 5766 5766 5774 5777 5781 5787 5789 5793 5800 5804 5808 5812 5814 5815 5817 5819 5821 5823
5793 5793 5791 5791 5788 5787 5785 5783 5780 5776 5774 5771 5770 5768 5766 5765 5762 5759 5757 5753 5748 5745 5743 5743 5742 5744 5744 5737 5742 5752 5757 5760 5765 5767 5774 5778 5782 5787 5791 5795 5799 5802 5806 5810 5810 5813 5816 5818 5819
5789 5789 5786 5786 5783 5782 5781 5779 5776 5773 5770 5768 5767 5765 5765 5762 5759 5756 5754 5750 5747 5744 5741 5741 5740 5739 5736 5730 5733 5742 5748 5757 5761 5764 5770 5774 5778 5782 5786 5790 5793 5797 5801 5804 5806 5808 5811 5813 5814
5783 5784 5781 5782 5778 5778 5776 5776 5773 5769 5767 5766 5764 5763 5762 5760 5757 5754 5752 5748 5746 5743 5740 5740 5738 5734 5731 5730 5731 5737 5745 5748 5754 5759 5765 5770 5774 5777 5781 5785 5789 5793 5797 5798 5802 5804 5807 5809 5809
5777 5778 5777 5777 5775 5773 5772 5772 5769 5766 5763 5762 5762 5760 5760 5758 5754 5751 5751 5748 5744 5742 5739 5739 5736 5733 5734 5733 5735 5738 5742 5744 5750 5754 5760 5765 5769 5773 5776 5779 5783 5788 5792 5794 5797 5801 5802 5804 5804
5771 5772 5772 5772 5771 5770 5769 5769 5765 5762 5760 5759 5759 5758 5757 5756 5753 5749 5747 5748 5744 5741 5740 5738 5735 5733 5734 5735 5736 5739 5741 5743 5748 5751 5756 5759 5764 5768 5771 5774 5779 5783 5786 5789 5793 5796 5799 5800 5799
5764 5766 5766 5767 5766 5767 5765 5765 5762 5760 5758 5755 5756 5755 5753 5753 5752 5749 5745 5746 5744 5741 5739 5737 5734 5732 5734 5735 5736 5739 5740 5742 5745 5748 5752 5756 5758 5761 5765 5771 5775 5779 5782 5786 5788 5791 5794 5795 5794
5757 5760 5762 5761 5761 5763 5763 5761 5757 5757 5756 5752 5752 5752 5750 5750 5749 5748 5746 5743 5743 5741 5738 5736 5734 5732 5731 5733 5734 5737 5740 5742 5744 5745 5749 5752 5754 5756 5760 5767 5773 5776 5779 5782 5784 5786 5789 5788 5789
5752 5756 5757 5755 5756 5758 5758 5759 5754 5753 5751 5750 5747 5748 5747 5746 5746 5746 5746 5743 5740 5739 5738 5736 5733 5731 5729 5731 5733 5736 5739 5741 5743 5745 5747 5748 5751 5754 5760 5764 5769 5773 5775 5778 5779 5780 5782 5782 5784
5747 5748 5749 5751 5749 5752 5753 5753 5753 5751 5749 5746 5744 5743 5744 5742 5742 5742 5742 5741 5740 5737 5735 5734 5733 5728 5727 5728 5730 5733 5735 5739 5741 5743 5745 5747 5750 5754 5758 5762 5765 5768 5770 5772 5773 5775 5776 5777 5777
5737 5741 5743 5744 5743 5746 5747 5747 5747 5748 5747 5743 5740 5739 5739 5739 5738 5738 5739 5738 5737 5736 5734 5732 5730 5729 5726 5727 5730 5733 5734 5737 5739 5741 5744 5745 5748 5751 5754 5757 5760 5763 5764 5765 5768 5770 5770 5770 5771
5730 5735 5738 5737 5737 5738 5741 5742 5743 5744 5742 5739 5736 5735 5734 5735 5735 5735 5735 5736 5735 5734 5733 5731 5731 5729 5726 5725 5727 5729 5730 5733 5736 5737 5741 5745 5747 5750 5752 5753 5755 5757 5759 5761 5762 5763 5764 5765 5765
5724 5727 5731 5731 5727 5732 5734 5737 5737 5739 5737 5735 5732 5731 5730 5730 5732 5731 5732 5733 5733 5731 5731 5730 5729 5728 5726 5725 5726 5725 5727 5729 5731 5733 5736 5740 5744 5746 5747 5748 5750 5752 5754 5756 5757 5758 5758 5759 5761
5715 5722 5721 5723 5720 5727 5726 5731 5734 5734 5732 5730 5727 5727 5726 5726 5727 5728 5728 5729 5730 5729 5728 5728 5728 5728 5727 5726 5725 5724 5724 5723 5727 5729 5731 5735 5737 5740 5741 5743 5745 5746 5748 5750 5751 5752 5753 5755 5758
5711 5710 5713 5713 5714 5718 5723 5724 5728 5730 5728 5726 5724 5723 5722 5722 5724 5725 5725 5727 5726 5726 5726 5726 5727 5727 5726 5726 5725 5723 5722 5722 5722 5724 5726 5730 5732 5733 5737 5738 5740 5742 5744 5746 5746 5747 5748 5750 5754
5697 5701 5703 5707 5710 5708 5719 5720 5724 5725 5723 5721 5720 5720 5719 5719 5720 5722 5723 5724 5724 5724 5724 5723 5724 5725 5725 5724 5722 5720 5722 5721 5720 5720 5722 5723 5723 5727 5730 5733 5734 5736 5738 5740 5741 5742 5744 5746 5748
5687 5694 5697 5702 5702 5703 5711 5709 5718 5720 5719 5719 5717 5717 5715 5716 5717 5719 5720 5720 5721 5721 5721 5721 5721 5722 5722 5722 5721 5721 5722 5720 5720 5721 5721 5720 5721 5723 5725 5728 5730 5731 5733 5733 5734 5738 5740 5741 5743
5682 5688 5694 5693 5695 5699 5701 5699 5709 5713 5713 5712 5713 5712 5712 5712 5713 5716 5717 5717 5718 5719 5719 5718 5718 5719 5720 5720 5720 5718 5718 5719 5719 5719 5719 5719 5721 5723 5724 5726 5727 5730 5731 5731 5731 5733 5736 5737 5738
5670 5673 5683 5685 5685 5688 5692 5693 5701 5706 5707 5707 5707 5708 5708 5708 5709 5711 5713 5714 5714 5715 5716 5716 5716 5716 5716 5717 5718 5718 5718 5717 5717 5717 5717 5718 5719 5720 5722 5724 5726 5728 5728 5729 5729 5731 5733 5732 5734
5656 5665 5671 5672 5676 5679 5683 5686 5692 5699 5701 5700 5702 5704 5702 5703 5704 5706 5708 5709 5709 5711 5712 5712 5713 5713 5712 5713 5714 5714 5715 5716 5716 5716 5717 5716 5718 5719 5720 5721 5721 5722 5723 5723 5723 5725 5725 5725 5726
5651 5655 5662 5666 5669 5673 5677 5681 5678 5692 5694 5693 5694 5696 5698 5698 5699 5700 5702 5704 5705 5706 5707 5708 5709 5709 5709 5709 5709 5709 5710 5712 5713 5714 5714 5713 5713 5713 5713 5713 5714 5714 5714 5715 5715 5717 5717 5717 5718
5644 5648 5653 5656 5662 5664 5668 5673 5671 5681 5686 5686 5687 5688 5691 5693 5693 5693 5695 5698 5700 5701 5702 5703 5704 5705 5704 5704 5705 5705 5704 5705 5707 5707 5707 5707 5707 5705 5705 5705 5705 5706 5706 5706 5705 5706 5707 5707 5709